TimeEDT,TemperatureF,Dew PointF,Humidity,Sea Level PressureIn,VisibilityMPH,Wind Direction,Wind SpeedMPH,Gust SpeedMPH,PrecipitationIn,Events,Conditions,WindDirDegrees,DateUTC
12:54 AM,53.6,28.4,38,29.93,10.0,SSE,10.4,-,N/A,,Mostly Cloudy,160,2013-03-11 04:54:00
1:54 AM,54.0,28.0,37,29.92,10.0,SSE,12.7,-,N/A,,Mostly Cloudy,160,2013-03-11 05:54:00
2:54 AM,55.0,28.0,35,29.90,10.0,SSE,13.8,-,N/A,,Mostly Cloudy,150,2013-03-11 06:54:00
3:54 AM,54.0,28.0,37,29.88,10.0,SSE,11.5,-,N/A,,Mostly Cloudy,160,2013-03-11 07:54:00
4:54 AM,52.0,28.9,41,29.88,10.0,South,8.1,-,N/A,,Mostly Cloudy,170,2013-03-11 08:54:00
5:54 AM,53.1,28.9,40,29.88,10.0,South,6.9,-,N/A,,Mostly Cloudy,180,2013-03-11 09:54:00
6:54 AM,53.1,30.0,41,29.90,10.0,SSW,10.4,-,N/A,,Overcast,200,2013-03-11 10:54:00
7:54 AM,53.1,30.0,41,29.91,10.0,South,9.2,-,0.00,,Overcast,170,2013-03-11 11:54:00
8:54 AM,53.1,30.9,43,29.90,10.0,South,9.2,-,0.00,,Overcast,170,2013-03-11 12:54:00
9:54 AM,54.0,28.0,37,29.89,10.0,SSE,8.1,-,N/A,,Overcast,160,2013-03-11 13:54:00
10:54 AM,55.0,30.0,38,29.91,10.0,South,12.7,-,N/A,,Overcast,180,2013-03-11 14:54:00
11:54 AM,57.0,30.0,36,29.87,10.0,South,11.5,-,N/A,,Overcast,180,2013-03-11 15:54:00
12:54 PM,60.1,30.9,33,29.84,10.0,South,15.0,-,N/A,,Overcast,190,2013-03-11 16:54:00
1:54 PM,63.0,32.0,31,29.78,10.0,SSE,19.6,26.5,N/A,,Mostly Cloudy,160,2013-03-11 17:54:00
2:54 PM,61.0,30.9,32,29.75,10.0,SSE,13.8,-,N/A,,Overcast,160,2013-03-11 18:54:00
3:54 PM,60.1,30.9,33,29.73,10.0,SSE,9.2,-,N/A,,Overcast,150,2013-03-11 19:54:00
4:54 PM,59.0,30.0,33,29.68,10.0,ESE,9.2,-,N/A,,Overcast,120,2013-03-11 20:54:00
5:54 PM,57.9,30.9,36,29.68,10.0,SSE,23.0,29.9,N/A,,Overcast,160,2013-03-11 21:54:00
6:54 PM,55.4,30.2,38,29.64,10.0,SSE,19.6,26.5,N/A,,Overcast,160,2013-03-11 22:54:00
7:54 PM,55.0,30.0,38,29.65,10.0,SSE,18.4,-,N/A,,Overcast,160,2013-03-11 23:54:00
8:54 PM,55.0,30.9,40,29.64,10.0,South,18.4,31.1,N/A,,Overcast,170,2013-03-12 00:54:00
9:54 PM,54.0,35.1,49,29.63,10.0,South,25.3,34.5,0.00,Rain,Light Rain,170,2013-03-12 01:54:00
10:43 PM,48.2,41.0,76,29.67,5.0,WSW,21.9,29.9,0.02,Rain,Heavy Rain,250,2013-03-12 02:43:00
10:54 PM,46.9,42.1,83,29.69,7.0,West,12.7,21.9,0.05,Rain,Rain,260,2013-03-12 02:54:00
11:48 PM,46.4,44.6,93,29.69,4.0,WSW,13.8,-,0.07,Rain,Light Rain,240,2013-03-12 03:48:00
11:54 PM,46.9,43.0,86,29.70,7.0,SW,11.5,-,0.08,Rain,Light Rain,230,2013-03-12 03:54:00